OE-11190 Weather Reports


time (UTC)temp
C
wind
direction
speed
KPH
gust
KPH
rain 1hr
cm
rain 24hr
cm
rain mn
cm
humidity
%
barometer
mb
20260905223508 21 265 14.5 25.7 0.00 0.00 0.00 52 1021.7
20260905222508 21 265 12.9 22.5 0.00 0.00 0.00 52 1021.7
20260905221122 21 269 14.5 24.1 0.00 0.00 0.00 51 1021.7
20260905220507 21 269 14.5 24.1 0.00 0.00 0.00 51 1021.6
20260905215508 21 277 14.5 25.7 0.00 0.00 0.00 52 1021.5
20260905214121 21 271 16.1 27.4 0.00 0.00 0.00 53 1021.5
20260905213508 21 269 14.5 22.5 0.00 0.00 0.00 53 1021.5
20260905212508 21 270 16.1 24.1 0.00 0.00 0.00 54 1021.4
20260905211121 21 273 16.1 25.7 0.00 0.00 0.00 53 1021.4
20260905210508 21 268 17.7 27.4 0.00 0.00 0.00 53 1021.4
20260905205507 21 271 16.1 27.4 0.00 0.00 0.00 53 1021.4
20260905204122 21 273 14.5 30.6 0.00 0.00 0.00 54 1021.4
20260905203508 21 269 11.3 19.3 0.00 0.00 0.00 56 1021.4
20260905202508 21 272 11.3 19.3 0.00 0.00 0.00 56 1021.4
20260905201121 21 273 11.3 19.3 0.00 0.00 0.00 56 1021.3
20260905200507 21 268 14.5 22.5 0.00 0.00 0.00 55 1021.2
20260905195506 21 269 14.5 24.1 0.00 0.00 0.00 55 1021.2
20260905194121 21 271 14.5 27.4 0.00 0.00 0.00 55 1021.0
20260905193508 21 276 12.9 20.9 0.00 0.00 0.00 55 1021.0
20260905192508 21 278 12.9 24.1 0.00 0.00 0.00 55 1020.8
20260905191122 22 275 14.5 27.4 0.00 0.00 0.00 54 1020.7
20260905190508 22 274 14.5 30.6 0.00 0.00 0.00 54 1020.4
20260905185508 22 277 17.7 27.4 0.00 0.00 0.00 54 1020.3
20260905184121 22 285 14.5 25.7 0.00 0.00 0.00 53 1020.1
20260905183508 22 284 14.5 27.4 0.00 0.00 0.00 53 1020.0
20260905182508 22 283 14.5 24.1 0.00 0.00 0.00 52 1019.9
20260905181121 22 281 14.5 27.4 0.00 0.00 0.00 51 1019.7
20260905175508 23 274 14.5 27.4 0.00 0.00 0.00 50 1019.4
20260905174121 23 279 24.1 49.9 0.00 0.00 0.00 48 1019.2
20260905173508 23 287 25.7 41.8 0.00 0.00 0.00 48 1019.2
20260905172508 23 295 24.1 46.7 0.00 0.00 0.00 47 1019.1
20260905171122 23 302 25.7 43.5 0.00 0.00 0.00 46 1018.9
20260905170508 23 305 24.1 43.5 0.00 0.00 0.00 45 1018.7
20260905165508 24 301 20.9 37.0 0.00 0.00 0.00 45 1018.6
20260905164121 25 305 25.7 46.7 0.00 0.00 0.00 44 1018.4
20260905163508 25 304 24.1 48.3 0.00 0.00 0.00 43 1018.4
20260905162508 25 306 19.3 38.6 0.00 0.00 0.00 42 1018.2
20260905161121 25 311 20.9 38.6 0.00 0.00 0.00 41 1018.1
20260905160508 25 310 19.3 43.5 0.00 0.00 0.00 41 1018.1
20260905155509 25 305 20.9 43.5 0.00 0.00 0.00 41 1017.9
20260905154121 26 302 16.1 38.6 0.00 0.00 0.00 41 1017.9
20260905153508 26 304 19.3 43.5 0.00 0.00 0.00 41 1017.9
20260905152508 26 297 17.7 37.0 0.00 0.00 0.00 40 1018.1
20260905151121 26 290 12.9 32.2 0.00 0.00 0.00 39 1018.1
20260905150508 26 299 24.1 40.2 0.00 0.00 0.00 41 1018.1
20260905145508 25 297 20.9 41.8 0.00 0.00 0.00 42 1018.1
20260905144120 25 299 20.9 45.1 0.00 0.00 0.00 42 1018.2
20260905143508 25 308 16.1 40.2 0.00 0.00 0.00 42 1018.2
20260905142508 25 294 17.7 37.0 0.00 0.00 0.00 43 1018.4
20260905141121 25 294 27.4 48.3 0.00 0.00 0.00 42 1018.4
20260905140508 25 287 24.1 51.5 0.00 0.00 0.00 41 1018.4
20260905135508 25 304 25.7 56.3 0.00 0.00 0.00 40 1018.3
20260905134121 25 302 17.7 38.6 0.00 0.00 0.00 40 1018.4
20260905133508 25 293 27.4 46.7 0.00 0.00 0.00 40 1018.4
20260905132507 25 292 27.4 46.7 0.00 0.00 0.00 40 1018.6
20260905131121 25 300 30.6 51.5 0.00 0.00 0.00 39 1018.5
20260905130507 25 297 33.8 53.1 0.00 0.00 0.00 39 1018.3
20260905125508 25 298 30.6 49.9 0.00 0.00 0.00 40 1018.1
20260905124121 25 302 25.7 46.7 0.00 0.00 0.00 40 1018.1
20260905123508 24 307 29.0 54.7 0.00 0.00 0.00 41 1018.2
20260905122507 25 301 30.6 59.5 0.00 0.00 0.00 41 1018.3
20260905121121 24 317 25.7 46.7 0.00 0.00 0.00 42 1018.4
20260905120507 24 314 20.9 48.3 0.00 0.00 0.00 43 1018.4
20260905115507 24 329 20.9 54.7 0.00 0.00 0.00 43 1018.6
20260905114121 25 298 19.3 41.8 0.00 0.00 0.00 44 1018.6
20260905113507 24 314 14.5 30.6 0.00 0.00 0.00 47 1018.6
20260905112508 23 292 14.5 30.6 0.00 0.00 0.00 50 1018.8
20260905111121 22 301 16.1 33.8 0.00 0.00 0.00 52 1018.9
20260905110508 22 300 11.3 24.1 0.00 0.00 0.00 52 1019.1
20260905105507 21 291 14.5 25.7 0.00 0.00 0.00 54 1019.1
20260905103508 21 289 14.5 25.7 0.00 0.00 0.00 55 1019.3
20260905102508 21 296 12.9 24.1 0.00 0.00 0.00 56 1019.4
20260905101120 21 298 16.1 30.6 0.00 0.00 0.00 58 1019.4
20260905100508 21 288 19.3 35.4 0.00 0.00 0.00 58 1019.4
20260905095507 21 288 24.1 38.6 0.00 0.00 0.00 55 1019.2
20260905094121 21 300 25.7 41.8 0.00 0.00 0.00 53 1019.1
20260905093508 21 297 19.3 33.8 0.00 0.00 0.00 53 1019.3
20260905092508 21 291 16.1 32.2 0.00 0.00 0.00 53 1019.7
20260905091120 21 295 17.7 33.8 0.00 0.00 0.00 54 1020.0
20260905090507 21 307 11.3 32.2 0.00 0.00 0.00 54 1019.8
20260905085507 20 296 8.0 22.5 0.00 0.00 0.00 54 1020.0
20260905084120 20 310 9.7 27.4 0.00 0.00 0.00 54 1019.9
20260905083508 20 310 14.5 33.8 0.00 0.00 0.00 54 1020.0
20260905082508 20 311 14.5 32.2 0.00 0.00 0.00 53 1020.2
20260905081120 20 310 14.5 32.2 0.00 0.00 0.00 54 1020.0
20260905080508 20 319 14.5 27.4 0.00 0.00 0.00 54 1020.1
20260905075507 20 316 9.7 27.4 0.00 0.00 0.00 53 1020.1
20260905074120 20 334 16.1 32.2 0.00 0.00 0.00 52 1019.9
20260905073507 20 331 19.3 40.2 0.00 0.00 0.00 52 1019.9
20260905072507 20 335 16.1 35.4 0.00 0.00 0.00 51 1019.4
20260905071120 20 322 20.9 38.6 0.00 0.00 0.00 49 1019.4
20260905070507 20 321 25.7 56.3 0.00 0.00 0.00 48 1019.6
20260905065507 20 326 25.7 51.5 0.00 0.00 0.00 48 1019.4
20260905064120 21 337 17.7 37.0 0.00 0.00 0.00 48 1018.8
20260905063507 21 333 16.1 45.1 0.00 0.00 0.00 48 1018.6
20260905062508 21 329 19.3 37.0 0.00 0.00 0.00 49 1018.4
20260905061120 21 329 17.7 41.8 0.00 0.00 0.00 49 1018.1
20260905060507 21 328 22.5 40.2 0.00 0.00 0.00 50 1018.1
20260905055508 21 322 17.7 45.1 0.00 0.00 0.00 50 1017.6
20260905054121 21 333 16.1 35.4 0.00 0.00 0.00 51 1016.9
20260905053507 21 325 12.9 33.8 0.00 0.00 0.00 52 1016.8
20260905052508 21 339 14.5 45.1 0.00 0.00 0.00 53 1016.4
20260905051121 21 331 17.7 38.6 0.00 0.00 0.00 54 1016.2
20260905050508 21 324 19.3 41.8 0.00 0.00 0.00 54 1015.6
20260905045508 21 324 22.5 54.7 0.00 0.00 0.00 56 1014.8
20260905044120 21 326 20.9 51.5 0.00 0.00 0.00 58 1014.6
20260905043508 21 324 20.9 48.3 0.00 0.00 0.00 61 1015.0
20260905042508 22 341 27.4 56.3 0.00 0.00 0.00 58 1014.7
20260905041120 23 327 19.3 38.6 0.00 0.00 0.00 56 1014.4
20260905040508 25 313 25.7 49.9 0.00 0.00 0.00 50 1013.2
20260905035508 26 292 27.4 46.7 0.00 0.00 0.00 47 1012.5
20260905011117 22 280 14.5 20.9 0.00 0.00 0.00 58 1012.4
20260905010508 22 289 14.5 19.3 0.00 0.00 0.00 59 1012.4
20260905005507 22 296 9.7 16.1 0.00 0.00 0.00 60 1012.4
20260905004121 22 298 11.3 20.9 0.00 0.00 0.00 57 1012.3
20260905003508 23 294 16.1 22.5 0.00 0.00 0.00 56 1012.3
20260905002507 23 292 19.3 22.5 0.00 0.00 0.00 54 1012.1
20260905001120 22 295 14.5 22.5 0.00 0.00 0.00 56 1012.3
20260905000508 23 295 6.4 14.5 0.00 0.00 0.00 56 1012.3
20260904235507 21 305 9.7 16.1 0.00 0.00 0.00 62 1012.3
20260904234121 21 301 9.7 16.1 0.00 0.00 0.00 62 1012.2
20260904233508 22 297 9.7 14.5 0.00 0.00 0.00 63 1012.1
20260904232508 22 291 9.7 14.5 0.00 0.00 0.00 63 1012.2
20260904231508 22 291 11.3 14.5 0.00 0.00 0.00 61 1012.1
20260904230508 22 292 9.7 16.1 0.00 0.00 0.00 59 1012.1
20260904225508 22 298 11.3 17.7 0.00 0.00 0.00 61 1012.1
20260904224121 22 301 8.0 14.5 0.00 0.00 0.00 62 1012.1